PTTIC SBVT-SBBH

Flight info

Callsign PTTIC
Flight time 0h 56m
Altitude 26000
Route OPLOX UZ34 NIPDA
Aircraft P180/L-SBDFGM3RWXY/LB1

Departure

Time 2026-05-09 03:02
Airport Eurico de Aguiar Salles International Airport (SBVT)

Arrival

Time 2026-05-09 03:58
Airport Pampulha - Carlos Drummond de Andrade Airport (SBBH)
Time Latitude Longitude Altitude Speed Heading
2026-05-09 02:59 -20.25974 -40.28989 12 ft 9 kts 193°
2026-05-09 02:59 -20.26036 -40.29024 12 ft 11 kts 212°
2026-05-09 02:59 -20.26110 -40.29074 12 ft 14 kts 212°
2026-05-09 02:59 -20.26196 -40.29130 12 ft 16 kts 206°
2026-05-09 03:00 -20.26292 -40.29140 12 ft 10 kts 169°
2026-05-09 03:00 -20.26361 -40.29125 12 ft 10 kts 168°
2026-05-09 03:00 -20.26394 -40.29081 13 ft 8 kts 66°
2026-05-09 03:00 -20.26383 -40.29071 13 ft 0 kts 33°
2026-05-09 03:01 -20.26328 -40.29034 14 ft 39 kts 31°
2026-05-09 03:01 -20.25873 -40.28735 10 ft 110 kts 32°
2026-05-09 03:01 -20.25107 -40.28224 204 ft 141 kts 32°
2026-05-09 03:01 -20.24215 -40.27610 403 ft 166 kts 32°
2026-05-09 03:02 -20.23146 -40.26909 846 ft 193 kts 30°
2026-05-09 03:02 -20.21938 -40.26141 1305 ft 204 kts 30°
2026-05-09 03:02 -20.20730 -40.25349 2021 ft 204 kts 31°
2026-05-09 03:02 -20.19530 -40.24541 2591 ft 206 kts 31°
2026-05-09 03:03 -20.18312 -40.23738 3225 ft 206 kts 31°
2026-05-09 03:03 -20.17082 -40.22944 3831 ft 207 kts 30°
2026-05-09 03:03 -20.15739 -40.22416 4309 ft 209 kts
2026-05-09 03:03 -20.14290 -40.22625 4858 ft 215 kts 341°
2026-05-09 03:04 -20.13064 -40.23565 5369 ft 224 kts 314°
2026-05-09 03:04 -20.12323 -40.25076 5725 ft 237 kts 295°
2026-05-09 03:04 -20.11757 -40.26759 6046 ft 245 kts 293°
2026-05-09 03:04 -20.11179 -40.28473 6481 ft 246 kts 294°
2026-05-09 03:05 -20.10579 -40.30184 6873 ft 247 kts 295°
2026-05-09 03:05 -20.09962 -40.31901 7225 ft 249 kts 295°
2026-05-09 03:05 -20.09351 -40.33627 7592 ft 250 kts 294°
2026-05-09 03:05 -20.08741 -40.35358 7982 ft 250 kts 294°
2026-05-09 03:06 -20.08127 -40.37095 8339 ft 251 kts 294°
2026-05-09 03:06 -20.07509 -40.38841 8697 ft 253 kts 294°
2026-05-09 03:06 -20.06950 -40.40616 9037 ft 254 kts 291°
2026-05-09 03:06 -20.06362 -40.42388 9404 ft 254 kts 294°
2026-05-09 03:07 -20.05738 -40.44150 9729 ft 255 kts 294°
2026-05-09 03:07 -20.05141 -40.45932 10052 ft 257 kts 292°
2026-05-09 03:07 -20.04555 -40.47738 10244 ft 262 kts 292°
2026-05-09 03:07 -20.03942 -40.49605 10240 ft 272 kts 293°
2026-05-09 03:08 -20.03302 -40.51524 10304 ft 279 kts 292°
2026-05-09 03:08 -20.02651 -40.53481 10377 ft 282 kts 292°
2026-05-09 03:08 -20.02012 -40.55424 10506 ft 282 kts 292°
2026-05-09 03:08 -20.01360 -40.57395 10637 ft 283 kts 292°
2026-05-09 03:09 -20.00706 -40.59370 10801 ft 284 kts 292°
2026-05-09 03:09 -20.00055 -40.61356 10970 ft 285 kts 292°
2026-05-09 03:09 -19.99394 -40.63343 11133 ft 285 kts 292°
2026-05-09 03:09 -19.98727 -40.65330 11344 ft 283 kts 292°
2026-05-09 03:10 -19.98102 -40.67219 12183 ft 258 kts 292°
2026-05-09 03:10 -19.97547 -40.68922 13198 ft 230 kts 293°
2026-05-09 03:10 -19.97045 -40.70433 14215 ft 204 kts 294°
2026-05-09 03:10 -19.96572 -40.71836 14761 ft 203 kts 294°
2026-05-09 03:11 -19.96095 -40.73258 15218 ft 205 kts 293°
2026-05-09 03:11 -19.95620 -40.74692 15668 ft 207 kts 292°
2026-05-09 03:11 -19.95141 -40.76136 16100 ft 208 kts 293°
2026-05-09 03:11 -19.94656 -40.77590 16537 ft 209 kts 292°
2026-05-09 03:12 -19.94169 -40.79053 16957 ft 211 kts 292°
2026-05-09 03:12 -19.93678 -40.80525 17391 ft 212 kts 292°
2026-05-09 03:12 -19.93183 -40.82011 17790 ft 214 kts 292°
2026-05-09 03:12 -19.92687 -40.83506 18205 ft 215 kts 292°
2026-05-09 03:13 -19.91677 -40.86530 18917 ft 218 kts 291°
2026-05-09 03:13 -19.91177 -40.88030 19248 ft 219 kts 291°
2026-05-09 03:13 -19.90669 -40.89555 19581 ft 220 kts 291°
2026-05-09 03:14 -19.90157 -40.91092 19911 ft 221 kts 291°
2026-05-09 03:14 -19.89643 -40.92635 20247 ft 222 kts 291°
2026-05-09 03:14 -19.89125 -40.94185 20566 ft 223 kts 291°
2026-05-09 03:14 -19.88605 -40.95741 20898 ft 224 kts 290°
2026-05-09 03:15 -19.88084 -40.97299 21245 ft 224 kts 290°
2026-05-09 03:15 -19.87562 -40.98863 21569 ft 225 kts 290°
2026-05-09 03:15 -19.87037 -41.00432 21909 ft 226 kts 290°
2026-05-09 03:15 -19.86509 -41.02009 22246 ft 227 kts 290°
2026-05-09 03:16 -19.86037 -41.03610 22587 ft 228 kts 279°
2026-05-09 03:16 -19.85874 -41.05291 22922 ft 230 kts 275°
2026-05-09 03:16 -19.85739 -41.06963 23264 ft 231 kts 275°
2026-05-09 03:16 -19.85584 -41.08666 23614 ft 232 kts 276°
2026-05-09 03:17 -19.85423 -41.10375 23920 ft 233 kts 276°
2026-05-09 03:17 -19.85264 -41.12092 24213 ft 234 kts 275°
2026-05-09 03:17 -19.85107 -41.13814 24514 ft 235 kts 275°
2026-05-09 03:17 -19.84949 -41.15540 24824 ft 235 kts 275°
2026-05-09 03:18 -19.84789 -41.17270 25130 ft 236 kts 275°
2026-05-09 03:18 -19.84629 -41.19013 25438 ft 237 kts 275°
2026-05-09 03:18 -19.84468 -41.20758 25748 ft 238 kts 275°
2026-05-09 03:18 -19.84307 -41.22510 26015 ft 241 kts 275°
2026-05-09 03:19 -19.84139 -41.24323 26100 ft 253 kts 275°
2026-05-09 03:19 -19.83964 -41.26229 26130 ft 266 kts 275°
2026-05-09 03:19 -19.83780 -41.28227 26141 ft 278 kts 275°
2026-05-09 03:19 -19.83589 -41.30312 26139 ft 288 kts 275°
2026-05-09 03:20 -19.83391 -41.32460 26137 ft 296 kts 275°
2026-05-09 03:20 -19.83186 -41.34668 26139 ft 304 kts 275°
2026-05-09 03:20 -19.82976 -41.36927 26136 ft 310 kts 275°
2026-05-09 03:20 -19.82763 -41.39230 26136 ft 316 kts 275°
2026-05-09 03:21 -19.82546 -41.41571 26139 ft 321 kts 275°
2026-05-09 03:21 -19.82326 -41.43946 26136 ft 325 kts 275°
2026-05-09 03:21 -19.82102 -41.46351 26136 ft 329 kts 275°
2026-05-09 03:21 -19.81876 -41.48780 26131 ft 332 kts 275°
2026-05-09 03:22 -19.81647 -41.51232 26134 ft 335 kts 275°
2026-05-09 03:22 -19.81417 -41.53700 26136 ft 337 kts 275°
2026-05-09 03:22 -19.81187 -41.56151 26135 ft 339 kts 275°
2026-05-09 03:22 -19.80952 -41.58646 26137 ft 341 kts 275°
2026-05-09 03:23 -19.80715 -41.61157 26134 ft 342 kts 276°
2026-05-09 03:23 -19.80479 -41.63674 26135 ft 343 kts 275°
2026-05-09 03:23 -19.80242 -41.66198 26134 ft 345 kts 276°
2026-05-09 03:23 -19.80000 -41.68740 26133 ft 345 kts 275°
2026-05-09 03:24 -19.79759 -41.71284 26135 ft 346 kts 276°
2026-05-09 03:24 -19.79518 -41.73835 26136 ft 347 kts 276°
2026-05-09 03:24 -19.79277 -41.76390 26136 ft 348 kts 276°
2026-05-09 03:24 -19.79033 -41.78952 26140 ft 349 kts 276°
2026-05-09 03:25 -19.78788 -41.81512 26142 ft 349 kts 276°
2026-05-09 03:25 -19.78545 -41.84047 26139 ft 350 kts 276°
2026-05-09 03:25 -19.78301 -41.86616 26140 ft 350 kts 276°
2026-05-09 03:25 -19.78057 -41.89200 26139 ft 350 kts 276°
2026-05-09 03:26 -19.77810 -41.91771 26144 ft 350 kts 276°
2026-05-09 03:26 -19.77563 -41.94344 26141 ft 350 kts 276°
2026-05-09 03:26 -19.77316 -41.96919 26143 ft 350 kts 276°
2026-05-09 03:26 -19.77068 -41.99494 26140 ft 350 kts 276°
2026-05-09 03:27 -19.76820 -42.02060 26138 ft 350 kts 276°
2026-05-09 03:27 -19.76655 -42.03765 26141 ft 350 kts 276°
2026-05-09 03:27 -19.76407 -42.06336 26138 ft 350 kts 276°
2026-05-09 03:27 -19.76160 -42.08911 26138 ft 351 kts 276°
2026-05-09 03:28 -19.75910 -42.11483 26136 ft 351 kts 276°
2026-05-09 03:28 -19.75573 -42.14896 26134 ft 351 kts 276°
2026-05-09 03:28 -19.75398 -42.16634 26133 ft 351 kts 276°
2026-05-09 03:28 -19.75138 -42.19210 26130 ft 351 kts 276°
2026-05-09 03:29 -19.74881 -42.21782 26132 ft 351 kts 276°
2026-05-09 03:29 -19.74623 -42.24359 26130 ft 351 kts 276°
2026-05-09 03:29 -19.74362 -42.26933 26128 ft 351 kts 276°
2026-05-09 03:29 -19.74102 -42.29507 26124 ft 351 kts 276°
2026-05-09 03:30 -19.73842 -42.32083 26122 ft 351 kts 276°
2026-05-09 03:30 -19.73581 -42.34658 26123 ft 351 kts 276°
2026-05-09 03:30 -19.73321 -42.37235 26116 ft 351 kts 276°
2026-05-09 03:30 -19.73058 -42.39812 26119 ft 351 kts 276°
2026-05-09 03:31 -19.72796 -42.42385 26118 ft 351 kts 276°
2026-05-09 03:31 -19.72537 -42.44928 26114 ft 351 kts 276°
2026-05-09 03:31 -19.72276 -42.47500 26115 ft 350 kts 276°
2026-05-09 03:31 -19.72016 -42.50071 26113 ft 350 kts 276°
2026-05-09 03:32 -19.71753 -42.52643 26113 ft 350 kts 276°
2026-05-09 03:32 -19.71489 -42.55211 26113 ft 350 kts 276°
2026-05-09 03:32 -19.71227 -42.57774 26112 ft 349 kts 276°
2026-05-09 03:32 -19.70966 -42.60339 26114 ft 349 kts 276°
2026-05-09 03:33 -19.70703 -42.62898 26116 ft 349 kts 276°
2026-05-09 03:33 -19.70437 -42.65461 26114 ft 349 kts 276°
2026-05-09 03:33 -19.70175 -42.68020 26122 ft 349 kts 276°
2026-05-09 03:33 -19.69917 -42.70554 26019 ft 352 kts 276°
2026-05-09 03:34 -19.69649 -42.73159 25599 ft 356 kts 276°
2026-05-09 03:34 -19.69378 -42.75788 25128 ft 360 kts 277°
2026-05-09 03:34 -19.69103 -42.78441 24655 ft 363 kts 277°
2026-05-09 03:34 -19.68825 -42.81102 24182 ft 362 kts 277°
2026-05-09 03:35 -19.68550 -42.83756 23702 ft 361 kts 277°
2026-05-09 03:35 -19.68277 -42.86407 23188 ft 359 kts 277°
2026-05-09 03:35 -19.68008 -42.89029 22716 ft 356 kts 277°
2026-05-09 03:35 -19.67734 -42.91634 22249 ft 353 kts 277°
2026-05-09 03:36 -19.67464 -42.94181 21788 ft 351 kts 277°
2026-05-09 03:36 -19.67200 -42.96742 21336 ft 348 kts 277°
2026-05-09 03:36 -19.66935 -42.99291 20876 ft 346 kts 277°
2026-05-09 03:36 -19.66669 -43.01822 20423 ft 344 kts 277°
2026-05-09 03:37 -19.66405 -43.04344 19973 ft 342 kts 277°
2026-05-09 03:37 -19.66143 -43.06852 19522 ft 340 kts 277°
2026-05-09 03:37 -19.65898 -43.09344 19078 ft 339 kts 275°
2026-05-09 03:37 -19.66184 -43.11808 18631 ft 340 kts 252°
2026-05-09 03:38 -19.67324 -43.13996 18161 ft 340 kts 234°
2026-05-09 03:38 -19.68809 -43.15943 17702 ft 338 kts 231°
2026-05-09 03:38 -19.70313 -43.17855 17258 ft 337 kts 232°
2026-05-09 03:38 -19.71777 -43.19789 16815 ft 335 kts 233°
2026-05-09 03:39 -19.73199 -43.21706 16379 ft 334 kts 233°
2026-05-09 03:39 -19.74644 -43.23627 15946 ft 332 kts 233°
2026-05-09 03:39 -19.76097 -43.25533 15511 ft 332 kts 233°
2026-05-09 03:39 -19.77545 -43.27446 15075 ft 332 kts 233°
2026-05-09 03:40 -19.78989 -43.29368 14632 ft 333 kts 234°
2026-05-09 03:40 -19.80435 -43.31286 14203 ft 333 kts 234°
2026-05-09 03:40 -19.81881 -43.33200 13736 ft 331 kts 234°
2026-05-09 03:40 -19.83313 -43.35102 13286 ft 328 kts 234°
2026-05-09 03:41 -19.84724 -43.36989 12859 ft 325 kts 234°
2026-05-09 03:41 -19.86125 -43.38862 12428 ft 323 kts 234°
2026-05-09 03:41 -19.87521 -43.40723 12007 ft 320 kts 234°
2026-05-09 03:41 -19.88903 -43.42567 11586 ft 316 kts 234°
2026-05-09 03:42 -19.90260 -43.44381 11178 ft 311 kts 234°
2026-05-09 03:42 -19.91599 -43.46166 10769 ft 307 kts 234°
2026-05-09 03:42 -19.92927 -43.47939 10366 ft 305 kts 234°
2026-05-09 03:42 -19.94220 -43.49666 10163 ft 297 kts 234°
2026-05-09 03:43 -19.95475 -43.51339 10136 ft 283 kts 234°
2026-05-09 03:43 -19.96677 -43.52946 10131 ft 275 kts 234°
2026-05-09 03:43 -19.97864 -43.54527 10129 ft 271 kts 234°
2026-05-09 03:43 -19.99027 -43.56077 10136 ft 265 kts 234°
2026-05-09 03:44 -20.00168 -43.57608 10129 ft 263 kts 234°
2026-05-09 03:44 -20.01303 -43.59122 10133 ft 260 kts 234°
2026-05-09 03:44 -20.02435 -43.60633 10136 ft 264 kts 234°
2026-05-09 03:44 -20.03591 -43.62182 10139 ft 269 kts 234°
2026-05-09 03:45 -20.04762 -43.63753 10144 ft 272 kts 235°
2026-05-09 03:45 -20.05605 -43.65526 10120 ft 269 kts 261°
2026-05-09 03:45 -20.05616 -43.67353 10136 ft 262 kts 285°
2026-05-09 03:45 -20.05036 -43.69175 10155 ft 260 kts 295°
2026-05-09 03:46 -20.04360 -43.70972 10148 ft 263 kts 295°
2026-05-09 03:46 -20.03691 -43.72795 10150 ft 265 kts 294°
2026-05-09 03:46 -20.03054 -43.74611 10151 ft 267 kts 294°
2026-05-09 03:46 -20.02403 -43.76461 10138 ft 266 kts 294°
2026-05-09 03:47 -20.01748 -43.78293 10147 ft 266 kts 295°
2026-05-09 03:47 -20.01082 -43.80130 10141 ft 265 kts 294°
2026-05-09 03:47 -20.00427 -43.81967 10138 ft 266 kts 294°
2026-05-09 03:47 -19.99775 -43.83805 10133 ft 265 kts 294°
2026-05-09 03:48 -19.99122 -43.85640 10134 ft 266 kts 294°
2026-05-09 03:48 -19.98456 -43.87487 10133 ft 269 kts 295°
2026-05-09 03:48 -19.97789 -43.89338 10138 ft 268 kts 294°
2026-05-09 03:48 -19.97130 -43.91190 10139 ft 267 kts 294°
2026-05-09 03:49 -19.96471 -43.93038 10129 ft 268 kts 294°
2026-05-09 03:49 -19.95808 -43.94886 10143 ft 265 kts 294°
2026-05-09 03:49 -19.95166 -43.96683 10068 ft 258 kts 295°
2026-05-09 03:49 -19.94523 -43.98477 9798 ft 261 kts 294°
2026-05-09 03:50 -19.93879 -44.00283 9516 ft 262 kts 294°
2026-05-09 03:50 -19.93237 -44.02097 9238 ft 263 kts 294°
2026-05-09 03:50 -19.92587 -44.03917 8945 ft 264 kts 294°
2026-05-09 03:50 -19.91949 -44.05700 8676 ft 258 kts 294°
2026-05-09 03:51 -19.91319 -44.07473 8387 ft 254 kts 294°
2026-05-09 03:51 -19.90694 -44.09219 8122 ft 252 kts 293°
2026-05-09 03:51 -19.90073 -44.10950 7851 ft 249 kts 293°
2026-05-09 03:51 -19.89459 -44.12663 7580 ft 248 kts 293°
2026-05-09 03:52 -19.88631 -44.14221 7317 ft 237 kts 314°
2026-05-09 03:52 -19.87300 -44.15183 7089 ft 229 kts 338°
2026-05-09 03:52 -19.85744 -44.15456 6847 ft 227 kts
2026-05-09 03:52 -19.84233 -44.15067 6614 ft 221 kts 18°
2026-05-09 03:53 -19.82800 -44.14527 6388 ft 215 kts 19°
2026-05-09 03:53 -19.81408 -44.14017 6193 ft 208 kts 18°
2026-05-09 03:53 -19.80216 -44.13214 5969 ft 203 kts 46°
2026-05-09 03:53 -19.79555 -44.11933 5759 ft 196 kts 72°
2026-05-09 03:54 -19.79524 -44.10507 5568 ft 195 kts 99°
2026-05-09 03:54 -19.79981 -44.09159 5382 ft 195 kts 108°
2026-05-09 03:54 -19.80470 -44.07867 5228 ft 181 kts 108°
2026-05-09 03:54 -19.80915 -44.06650 4982 ft 175 kts 106°
2026-05-09 03:55 -19.81332 -44.05474 4762 ft 171 kts 107°
2026-05-09 03:55 -19.81750 -44.04297 4499 ft 169 kts 108°
2026-05-09 03:55 -19.82171 -44.03127 4207 ft 173 kts 107°
2026-05-09 03:55 -19.82577 -44.01977 3980 ft 156 kts 109°
2026-05-09 03:56 -19.82938 -44.00979 3748 ft 136 kts 108°
2026-05-09 03:56 -19.83265 -44.00060 3557 ft 134 kts 109°
2026-05-09 03:56 -19.83595 -43.99133 3419 ft 134 kts 110°
2026-05-09 03:56 -19.83926 -43.98215 3169 ft 130 kts 111°
2026-05-09 03:57 -19.84239 -43.97346 2921 ft 130 kts 111°
2026-05-09 03:57 -19.84561 -43.96463 2701 ft 125 kts 111°
2026-05-09 03:57 -19.84857 -43.95640 2593 ft 111 kts 111°
2026-05-09 03:57 -19.85073 -43.95035 2603 ft 53 kts 111°
2026-05-09 03:58 -19.85167 -43.94773 2598 ft 19 kts 110°
2026-05-09 03:58 -19.85129 -43.94732 2594 ft 10 kts
2026-05-09 03:58 -19.85058 -43.94710 2601 ft 10 kts 20°
2026-05-09 03:58 -19.84994 -43.94694 2598 ft 8 kts 11°
2026-05-09 03:59 -19.84969 -43.94687 2602 ft 0 kts 17°